Location: Street
(51.1247°N, 2.7429°W)
Time: 14:59:08
(UTC+01:00)

STRAND 1 - Visible Passes

Search period start: 18 July 2024 00:00
Search period end: 28 July 2024 00:00
Orbit: 764 x 778 km, 98.4° (Epoch: 17 July)

Date Brightness Start Highest point End Pass type
(mag) Time Alt. Az. Time Alt. Az. Time Alt. Az.
20 Jul ? 22:09:39 10° NW 22:10:15 10° NW 22:10:50 10° NW visible
21 Jul ? 04:33:12 10° ENE 04:35:31 13° NE 04:37:51 10° NNE visible
23 Jul ? 22:03:00 10° NNW 22:04:28 11° NW 22:05:57 10° WNW visible
24 Jul ? 04:27:51 10° ENE 04:29:45 12° NE 04:31:38 10° NNE visible
26 Jul ? 21:56:41 10° NNW 21:58:40 12° NW 22:00:39 10° WNW visible
27 Jul ? 04:22:38 10° ENE 04:23:57 11° NE 04:25:16 10° NNE visible
